[[[{"header":{"parameterUnit":"kt","parameterCategory":2,"dx":1,"dy":1,"la1":30.253999710083008,"la2":30.299108505249023,"lo1":-89.0895004272461,"lo2":-89.04439544677734,"nx":28,"ny":28,"refTime":"2022-10-06T21:00:00:Z","depth":0,"parameterNumber":1,"parameterNumberName":"U-component_of_WINDS"},"data":[-3.8405,-3.8438,-3.8408,-3.8432,-3.8409,-3.842,-3.8415,-3.8405,-3.8389,-3.8399,-3.84,-3.8373,-3.8346,-3.834,-3.8339,-3.8327,-3.833,-3.8363,-3.8344,-3.8221,-3.8202,-3.8184,-3.8174,-3.8364,-3.8364,-3.8475,-3.8476,-3.8477,-3.8318,-3.8296,-3.83,-3.8283,-3.8286,-3.8236,-3.8219,-3.8225,-3.8236,-3.8217,-3.8216,-3.8223,-3.8224,-3.8185,-3.8181,-3.8196,-3.8173,-3.8197,-3.8196,-3.8193,-3.806,-3.805,-3.8216,-3.8216,-3.8216,-3.8216,-3.8216,-3.8216,-3.8152,-3.8173,-3.8145,-3.8148,-3.8132,-3.8121,-3.8136,-3.8102,-3.8105,-3.8098,-3.8061,-3.8074,-3.8049,-3.803,-3.8016,-3.8025,-3.7993,-3.8011,-3.8015,-3.8021,-3.8031,-3.7876,-3.8023,-3.8023,-3.8022,-3.8022,-3.8021,0,-3.8021,-3.7994,-3.7995,-3.7988,-3.7989,-3.798,-3.7967,-3.7975,-3.7909,-3.7915,-3.792,-3.7919,-3.7915,-3.7918,-3.7908,-3.7889,-3.7838,-3.783,-3.7842,-3.7861,-3.7878,-3.787,-3.7656,-3.7826,-3.7824,-3.7823,-3.7822,-3.7821,-3.7851,-3.7879,-3.7835,-3.784,-3.7825,-3.7834,-3.7833,-3.7772,-3.7774,-3.7749,-3.7771,-3.7772,-3.777,-3.7785,-3.7745,-3.7743,-3.7719,-3.7787,-3.7718,-3.7735,-3.7721,-3.772,-3.7723,-3.7802,-3.7804,-3.7806,-3.7808,0,-3.7759,-3.7709,-3.7742,-3.7695,-3.7684,-3.7717,-3.7677,-3.7695,-3.766,-3.7681,-3.7682,-3.7628,-3.7634,-3.7584,-3.7581,-3.7555,-3.7608,-3.7584,-3.7616,-3.7609,-3.7665,-3.7661,-3.7855,-3.7878,-3.768,-3.7682,-3.7684,0,-3.7595,-3.7634,-3.7557,-3.7579,-3.7619,-3.7556,-3.7598,-3.7572,-3.7549,-3.7565,-3.7498,-3.7514,-3.7446,-3.7455,-3.7416,-3.745,-3.7449,-3.7431,-3.7421,-3.7438,-3.7441,-3.7439,-3.743,-3.7394,-3.7393,-3.7393,-3.7392,0,-3.7457,-3.746,-3.7495,-3.7488,-3.7442,-3.746,-3.7442,-3.7415,-3.7415,-3.7406,-3.7406,-3.7401,-3.7399,-3.7396,-3.7346,-3.7301,-3.7386,-3.7315,-3.7368,-3.737,-3.739,-3.739,-3.7574,-3.7391,-3.739,-3.739,-3.739,0,-3.7317,-3.7309,-3.7366,-3.7326,-3.733,-3.7353,-3.7343,-3.7351,-3.7328,-3.7304,-3.7297,-3.7247,-3.7272,-3.7204,-3.7238,-3.7194,-3.7196,-3.7181,-3.7183,-3.7183,-3.711,-3.7221,-3.7401,-3.7418,-3.7183,-3.7181,-3.7179,0,-3.7172,-3.7217,-3.7162,-3.7219,-3.7232,-3.7155,-3.7179,-3.7161,-3.7131,-3.7138,-3.7105,-3.7114,-3.7053,-3.7049,-3.7072,-3.7039,-3.7096,-3.703,-3.7043,-3.7044,-3.7052,-3.7216,-3.7256,-3.7367,-3.7156,-3.7159,-3.716,0,-3.7054,-3.6996,-3.7011,-3.6999,-3.6964,-3.6974,-3.7003,-3.6997,-3.7005,-3.6991,-3.7013,-3.7025,-3.6979,-3.6973,-3.6931,-3.6958,-3.7056,-3.6906,-3.6904,-3.6935,-3.714,-3.7178,-3.7197,-3.7022,-3.7024,-3.7026,-3.7142,0,-3.6855,-3.687,-3.6905,-3.6883,-3.6883,-3.6915,-3.6859,-3.6867,-3.6826,-3.6794,-3.6825,-3.6797,-3.6792,-3.6799,-3.676,-3.6839,-3.6818,-3.6769,-3.67,-3.6808,-3.6845,-3.686,-3.665,-3.6647,-3.6645,-3.6644,0,0,-3.673,-3.675,-3.6689,-3.6713,-3.671,-3.6629,-3.6669,-3.6656,-3.6632,-3.6632,-3.6592,-3.6605,-3.6584,-3.6628,-3.6658,-3.6656,-3.6665,-3.6629,-3.6757,-3.677,-3.6782,-3.6822,-3.6839,-3.664,-3.664,-3.6639,-3.6638,0,-3.6646,-3.6624,-3.6663,-3.6646,-3.662,-3.6583,-3.6592,-3.6552,-3.6533,-3.6563,-3.6497,-3.651,-3.6521,-3.6508,-3.6502,-3.6622,-3.6572,-3.6625,-3.6708,-3.6739,-3.6755,-3.6768,-3.6811,-3.6828,-3.6633,-3.6634,-3.6634,0,-3.6519,-3.6489,-3.6502,-3.6488,-3.647,-3.6486,-3.64,-3.642,-3.6431,-3.6343,-3.6374,-3.6351,-3.6328,-3.6377,-3.6397,-3.6362,-3.6491,-3.6441,-3.6451,-3.6453,-3.648,-3.6499,-3.6516,-3.6296,-3.6295,-3.6295,0,0,-3.6455,-3.6468,-3.6416,-3.6466,-3.6459,-3.6405,-3.6408,-3.6367,-3.6347,-3.634,-3.6309,-3.6292,-3.6298,-3.6304,-3.6306,-3.6368,-3.6359,-3.6401,-3.6417,-3.643,-3.6439,-3.647,-3.6489,-3.6291,-3.6291,-3.6291,0,0,-3.6423,-3.6365,-3.6327,-3.6378,-3.6361,-3.6314,-3.6347,-3.6299,-3.6296,-3.6286,-3.6219,-3.6212,-3.6257,-3.6237,-3.6195,-3.6281,-3.6214,-3.6223,-3.6292,-3.6312,-3.6327,-3.6332,-3.6104,0,0,0,0,0,-3.6309,-3.6372,-3.6338,-3.6338,-3.6321,-3.6332,-3.633,-3.6276,-3.6229,-3.6257,-3.6223,-3.6169,-3.6201,-3.6162,-3.6164,-3.6211,-3.6245,-3.6253,-3.6261,-3.6365,-3.6386,-3.6403,0,0,0,0,0,0,-3.6308,-3.6308,-3.6336,-3.6293,-3.6288,-3.633,-3.6239,-3.6226,-3.6225,-3.6214,-3.6177,-3.6168,-3.6122,-3.6158,-3.616,-3.6206,-3.6103,-3.6248,-3.6255,-3.6261,-3.6372,-3.6389,-3.6403,0,0,0,0,0,-3.6307,-3.6308,-3.6295,-3.6291,-3.6288,-3.623,-3.6236,-3.6224,-3.6223,-3.6171,-3.616,-3.6182,-3.6125,-3.6123,-3.6159,-3.6206,-3.6101,-3.6102,-3.6252,-3.6258,-3.6263,-3.638,0,0,0,0,0,0,-3.6307,-3.6297,-3.6293,-3.629,-3.6263,-3.6227,-3.6219,-3.6223,-3.6178,-3.6168,-3.6172,-3.6164,-3.6128,-3.6126,-3.6125,-3.621,-3.6099,-3.61,-3.6101,-3.6257,-3.6261,-3.6265,0,0,0,0,0,0,-3.6297,-3.6295,-3.6291,-3.6259,-3.6251,-3.6224,-3.6217,-3.624,-3.6179,-3.6182,-3.6174,-3.6169,-3.613,-3.6128,-3.6127,-3.6164,-3.6098,-3.6099,-3.61,-3.61,-3.626,-3.6264,0,0,0,0,0,0,-3.6295,-3.6294,-3.6259,-3.6253,-3.6247,-3.6207,-3.6243,-3.6229,-3.615,-3.6185,-3.6142,-3.6138,-3.6134,-3.6131,-3.6129,-3.6167,-3.6165,-3.6098,-3.6099,-3.6099,-3.6099,0,0,0,0,0,0,0,-3.6294,-3.6316,-3.6311,-3.6249,-3.6243,-3.6261,-3.626,-3.6259,-3.615,-3.6146,-3.6143,-3.614,-3.6092,-3.6093,-3.6094,-3.6169,0,0,-3.6098,-3.6098,0,0,0,0,0,0,0,0,-3.6315,-3.6315,-3.6311,-3.6311,-3.631,-3.6261,-3.626,-3.6259,-3.6149,-3.6146,-3.6144,-3.6141,-3.6092,-3.6093,-3.6094,0,0,0,0,0,0,0,0,0,0,0,0,0,0,0,-3.6311,-3.6311,0,-3.626,-3.626,-3.6259,-3.6149,-3.6146,-3.6144,-3.6142,-3.6092,-3.6093,-3.6094,0,0,0,0,0,0,0,0,0,0,0,0,0,0,0,0,0,0,0,0,0,0,0,0,0,0,0,0,0,0,0,0,0,0,0,0,0,0,0,0,0,0,0,0,0,0,0,0,0,0,0,0,0,0,0,0,0,0,0,0,0,0,0,0,0,0,0,0,0]}],[{"header":{"parameterUnit":"kt","parameterCategory":2,"dx":1,"dy":1,"la1":30.253999710083008,"la2":30.299108505249023,"lo1":-89.0895004272461,"lo2":-89.04439544677734,"nx":28,"ny":28,"refTime":"2022-10-06T21:00:00:Z","depth":0,"parameterNumber":2,"parameterNumberName":"V-component_of_WINDS"},"data":[-9.4447,-9.4537,-9.4556,-9.4666,-9.47,-9.4778,-9.4811,-9.4854,-9.4893,-9.4984,-9.5039,-9.5062,-9.5104,-9.517,-9.5228,-9.5236,-9.5261,-9.5282,-9.5288,-9.5183,-9.5169,-9.5156,-9.5139,-9.5286,-9.5286,-9.5397,-9.5398,-9.5398,-9.4374,-9.4411,-9.4474,-9.4547,-9.4601,-9.4593,-9.4648,-9.4693,-9.4761,-9.4807,-9.4861,-9.4941,-9.5004,-9.5038,-9.5101,-9.514,-9.5139,-9.5156,-9.5155,-9.5162,-9.5049,-9.503,-9.5157,-9.5157,-9.5157,-9.5157,-9.5157,-9.5157,-9.4248,-9.43,-9.4355,-9.4423,-9.4464,-9.4511,-9.4563,-9.4592,-9.465,-9.472,-9.4725,-9.48,-9.4847,-9.4927,-9.4956,-9.5013,-9.4996,-9.5019,-9.5025,-9.5032,-9.5039,-9.4885,-9.5023,-9.5023,-9.5023,-9.5022,-9.5022,0,-9.4161,-9.4174,-9.4233,-9.43,-9.4349,-9.4401,-9.445,-9.4481,-9.4506,-9.4552,-9.462,-9.4661,-9.4741,-9.4805,-9.4865,-9.489,-9.4883,-9.4882,-9.4898,-9.49,-9.4896,-9.4903,-9.4722,-9.4878,-9.4876,-9.4876,-9.4875,-9.4874,-9.4038,-9.4094,-9.4158,-9.4198,-9.4229,-9.4291,-9.4332,-9.4349,-9.439,-9.445,-9.4492,-9.4557,-9.4609,-9.4711,-9.4738,-9.4796,-9.4793,-9.4852,-9.4801,-9.4801,-9.4798,-9.4796,-9.4803,-9.4862,-9.4863,-9.4865,-9.4866,0,-9.3968,-9.3995,-9.4087,-9.4142,-9.4158,-9.4215,-9.4261,-9.4311,-9.4331,-9.4402,-9.4419,-9.4449,-9.4513,-9.4531,-9.4605,-9.4612,-9.4706,-9.47,-9.4693,-9.4693,-9.475,-9.4746,-9.4925,-9.4951,-9.4794,-9.4796,-9.4797,0,-9.3874,-9.3946,-9.3983,-9.4034,-9.4115,-9.4131,-9.4209,-9.4234,-9.4275,-9.433,-9.4325,-9.4377,-9.4391,-9.4444,-9.4454,-9.4534,-9.4546,-9.4557,-9.4559,-9.456,-9.4559,-9.4581,-9.4576,-9.4557,-9.4556,-9.4555,-9.4555,0,-9.3764,-9.3865,-9.3949,-9.3976,-9.404,-9.4078,-9.4105,-9.4149,-9.4186,-9.4236,-9.4261,-9.4316,-9.4347,-9.439,-9.4403,-9.4369,-9.4498,-9.4454,-9.451,-9.451,-9.4539,-9.4538,-9.469,-9.4554,-9.4553,-9.4553,-9.4553,0,-9.3693,-9.3747,-9.3863,-9.3917,-9.3942,-9.3995,-9.4054,-9.4103,-9.4149,-9.416,-9.4199,-9.4197,-9.4265,-9.422,-9.4315,-9.4267,-9.4298,-9.4313,-9.4317,-9.4327,-9.4277,-9.4365,-9.4506,-9.4523,-9.4333,-9.4331,-9.433,0,-9.3562,-9.3684,-9.37,-9.3807,-9.3867,-9.3861,-9.3919,-9.3959,-9.3979,-9.403,-9.405,-9.4106,-9.4076,-9.4096,-9.414,-9.4162,-9.4223,-9.4154,-9.4227,-9.4229,-9.422,-9.4349,-9.4368,-9.4473,-9.4306,-9.4309,-9.431,0,-9.3463,-9.3541,-9.3559,-9.3591,-9.3648,-9.3695,-9.3761,-9.3822,-9.3857,-9.3899,-9.3956,-9.4032,-9.4015,-9.4046,-9.4049,-9.4094,-9.4182,-9.4067,-9.4068,-9.409,-9.4294,-9.4313,-9.433,-9.4174,-9.4177,-9.4179,-9.4292,0,-9.3358,-9.342,-9.3469,-9.3536,-9.3575,-9.3641,-9.3662,-9.37,-9.3702,-9.3721,-9.38,-9.3833,-9.3891,-9.3913,-9.3912,-9.4008,-9.3995,-9.3973,-9.3932,-9.4015,-9.4053,-9.4068,-9.3875,-9.3873,-9.3872,-9.3872,0,0,-9.3227,-9.3317,-9.3329,-9.3395,-9.3429,-9.342,-9.349,-9.352,-9.3582,-9.3606,-9.3583,-9.3696,-9.3722,-9.3817,-9.3844,-9.3865,-9.3885,-9.3854,-9.3974,-9.3986,-9.3996,-9.4037,-9.4052,-9.387,-9.387,-9.3869,-9.3869,0,-9.3194,-9.3226,-9.3295,-9.3329,-9.338,-9.3396,-9.3412,-9.3459,-9.3474,-9.355,-9.354,-9.3589,-9.3675,-9.3708,-9.3735,-9.3843,-9.3831,-9.3858,-9.3913,-9.3964,-9.3977,-9.3988,-9.403,-9.4045,-9.3867,-9.3867,-9.3867,0,-9.3104,-9.314,-9.3175,-9.3251,-9.3283,-9.3341,-9.3304,-9.3365,-9.3408,-9.339,-9.3466,-9.3486,-9.3528,-9.3613,-9.3651,-9.3631,-9.3782,-9.3735,-9.3741,-9.3746,-9.3797,-9.3812,-9.3825,-9.3648,-9.3647,-9.3646,0,0,-9.3071,-9.3129,-9.3171,-9.3245,-9.3266,-9.329,-9.3322,-9.3326,-9.3366,-9.3382,-9.3408,-9.3445,-9.3496,-9.3529,-9.3577,-9.3667,-9.3677,-9.3707,-9.3718,-9.3726,-9.3735,-9.3788,-9.3803,-9.3643,-9.3643,-9.3643,0,0,-9.3055,-9.3109,-9.3104,-9.3193,-9.3233,-9.3277,-9.3321,-9.3314,-9.336,-9.3354,-9.3361,-9.3371,-9.3449,-9.3468,-9.3426,-9.3563,-9.3522,-9.3532,-9.3548,-9.3562,-9.3572,-9.3566,-9.339,0,0,0,0,0,-9.3032,-9.3103,-9.3098,-9.3116,-9.3208,-9.328,-9.3292,-9.3301,-9.3274,-9.3309,-9.3329,-9.3313,-9.3448,-9.341,-9.3426,-9.3474,-9.3604,-9.3611,-9.3617,-9.366,-9.3674,-9.3685,0,0,0,0,0,0,-9.3039,-9.3061,-9.3096,-9.3143,-9.3164,-9.3278,-9.3233,-9.3238,-9.327,-9.3267,-9.331,-9.3315,-9.3321,-9.3402,-9.3417,-9.3462,-9.3385,-9.3607,-9.3613,-9.3618,-9.3665,-9.3676,-9.3685,0,0,0,0,0,-9.3045,-9.3062,-9.3209,-9.3142,-9.316,-9.319,-9.3231,-9.3234,-9.3259,-9.329,-9.3294,-9.3263,-9.3322,-9.3335,-9.3411,-9.3455,-9.3375,-9.3381,-9.361,-9.3615,-9.3619,-9.367,0,0,0,0,0,0,-9.3049,-9.3065,-9.3213,-9.3219,-9.3116,-9.3183,-9.3194,-9.3231,-9.328,-9.3285,-9.3243,-9.3239,-9.3324,-9.3333,-9.3343,-9.3453,-9.3367,-9.3373,-9.3376,-9.3614,-9.3618,-9.3621,0,0,0,0,0,0,-9.3055,-9.307,-9.3216,-9.3183,-9.3185,-9.3177,-9.3187,-9.3251,-9.3281,-9.323,-9.3229,-9.3241,-9.3308,-9.3333,-9.334,-9.3439,-9.3361,-9.3366,-9.337,-9.3372,-9.3617,-9.362,0,0,0,0,0,0,-9.3062,-9.3074,-9.3181,-9.3183,-9.3184,-9.325,-9.3234,-9.3327,-9.3256,-9.3228,-9.3249,-9.3246,-9.3308,-9.3315,-9.3338,-9.3434,-9.3438,-9.3361,-9.3365,-9.3367,-9.3369,0,0,0,0,0,0,0,-9.3067,-9.2982,-9.3179,-9.3183,-9.3184,-9.3272,-9.3274,-9.3275,-9.3255,-9.3252,-9.325,-9.3247,-9.3332,-9.3337,-9.3343,-9.343,0,0,-9.3361,-9.3363,0,0,0,0,0,0,0,0,-9.2977,-9.2981,-9.3179,-9.3181,-9.3182,-9.3273,-9.3274,-9.3275,-9.3255,-9.3252,-9.325,-9.3248,-9.3333,-9.3338,-9.3342,0,0,0,0,0,0,0,0,0,0,0,0,0,0,0,-9.318,-9.3181,0,-9.3273,-9.3274,-9.3275,-9.3254,-9.3253,-9.3251,-9.3249,-9.3335,-9.3338,-9.3342,0,0,0,0,0,0,0,0,0,0,0,0,0,0,0,0,0,0,0,0,0,0,0,0,0,0,0,0,0,0,0,0,0,0,0,0,0,0,0,0,0,0,0,0,0,0,0,0,0,0,0,0,0,0,0,0,0,0,0,0,0,0,0,0,0,0,0,0,0]}]]]